Terminal Aerodrome Forecast
Issued by NWS Omaha/Valley, NE

Home | Current Version | Previous Version | Text Only | Print | Product List | Glossary Off
Versions: 1 2 3 4 5 6 7 8 9 10 11 12 13 14 15 16 17 18 19 20 21 22 23 24 25 26 27 28 29 30 31 32 33 34 35 36

261
FTUS43 KOAX 230520
TAFOFK
TAF
KOFK 230520Z 2306/2406 14004KT P6SM SCT040 BKN120
      TEMPO 2310/2312 4SM TSRA BKN040CB
     FM231400 18007KT P6SM BKN120
     FM231700 18010KT P6SM BKN250
     FM240100 21006KT P6SM SCT250=

USA.gov is the U.S. government's official web portal to all federal, state and local government web resources and services.